{"data":{"norad_id":58197,"epoch":"2026-09-20T00:47:38.921568Z","epoch_age_seconds":184019,"freshness":"STALE","line1":"1 58197U 23167Y   26263.03308937  .00000169  00000+0  15677-4 0  9996","line2":"2 58197  43.0010 126.1644 0001456 265.5907  94.4778 15.27576060160706","mean_motion":15.2757606,"eccentricity":0.0001456,"inclination_deg":43.001,"raan_deg":126.1644,"arg_perigee_deg":265.5907,"mean_anomaly_deg":94.4778,"bstar":1.5677e-5,"rev_number":16070,"period_min":94.266991851129,"perigee_km":482.06190342908,"apogee_km":484.05988425576,"semimajor_km":6861.1978938424,"source":"CELESTRAK","updated_at":"2026-09-21T09:00:33.830652Z"}}